owner,sensor,date,latitude,longitude,vertical_datum,mass_concentration_of_oxygen_in_sea_water,qcFlag 
DISL,ioos:station:DISL:DISL:1,2017-02-01T00:00:00Z,30.2513,-88.0778,1.928,10.38,1111122 
DISL,ioos:station:DISL:DISL:1,2017-02-01T00:30:00Z,30.2513,-88.0778,1.937,10.3,1111122 
DISL,ioos:station:DISL:DISL:1,2017-02-01T01:00:00Z,30.2513,-88.0778,1.94,10.16,1111122 
DISL,ioos:station:DISL:DISL:1,2017-02-01T01:30:00Z,30.2513,-88.0778,1.954,10.22,1111122 
DISL,ioos:station:DISL:DISL:1,2017-02-01T02:00:00Z,30.2513,-88.0778,1.97,10.05,1111122 
DISL,ioos:station:DISL:DISL:1,2017-02-01T02:30:00Z,30.2513,-88.0778,1.979,10.12,1111122 
DISL,ioos:station:DISL:DISL:1,2017-02-01T03:00:00Z,30.2513,-88.0778,2.0,10.03,1111122 
DISL,ioos:station:DISL:DISL:1,2017-02-01T03:30:00Z,30.2513,-88.0778,1.997,10.0,1111122 
DISL,ioos:station:DISL:DISL:1,2017-02-01T04:00:00Z,30.2513,-88.0778,2.003,10.04,1111122 
DISL,ioos:station:DISL:DISL:1,2017-02-01T04:30:00Z,30.2513,-88.0778,1.994,9.95,1111122 
DISL,ioos:station:DISL:DISL:1,2017-02-01T05:00:00Z,30.2513,-88.0778,2.01,9.92,1111122 
DISL,ioos:station:DISL:DISL:1,2017-02-01T05:30:00Z,30.2513,-88.0778,2.042,9.86,1111122 
DISL,ioos:station:DISL:DISL:1,2017-02-01T06:30:00Z,30.2513,-88.0778,2.028,9.55,1111122 
DISL,ioos:station:DISL:DISL:1,2017-02-01T07:00:00Z,30.2513,-88.0778,2.03,9.63,1111122 
DISL,ioos:station:DISL:DISL:1,2017-02-01T07:30:00Z,30.2513,-88.0778,2.023,9.54,1111122 
DISL,ioos:station:DISL:DISL:1,2017-02-01T08:00:00Z,30.2513,-88.0778,2.004,9.6,1111122 
DISL,ioos:station:DISL:DISL:1,2017-02-01T08:30:00Z,30.2513,-88.0778,2.01,9.71,1111122 
DISL,ioos:station:DISL:DISL:1,2017-02-01T09:00:00Z,30.2513,-88.0778,1.996,9.51,1111122 
DISL,ioos:station:DISL:DISL:1,2017-02-01T09:30:00Z,30.2513,-88.0778,1.988,9.54,1111122 
DISL,ioos:station:DISL:DISL:1,2017-02-01T10:00:00Z,30.2513,-88.0778,1.964,9.55,1111122 
DISL,ioos:station:DISL:DISL:1,2017-02-01T10:30:00Z,30.2513,-88.0778,1.957,9.41,1111122 
DISL,ioos:station:DISL:DISL:1,2017-02-01T11:00:00Z,30.2513,-88.0778,1.939,9.2,1111122 
DISL,ioos:station:DISL:DISL:1,2017-02-01T11:30:00Z,30.2513,-88.0778,1.924,8.92,1111122 
DISL,ioos:station:DISL:DISL:1,2017-02-01T12:00:00Z,30.2513,-88.0778,1.92,9.2,1111122 
DISL,ioos:station:DISL:DISL:1,2017-02-01T12:30:00Z,30.2513,-88.0778,1.916,9.63,1111122 
DISL,ioos:station:DISL:DISL:1,2017-02-01T13:00:00Z,30.2513,-88.0778,1.902,9.67,1111122 
DISL,ioos:station:DISL:DISL:1,2017-02-01T13:30:00Z,30.2513,-88.0778,1.888,9.83,1111122 
DISL,ioos:station:DISL:DISL:1,2017-02-01T14:00:00Z,30.2513,-88.0778,1.881,10.22,1111122 
DISL,ioos:station:DISL:DISL:1,2017-02-01T14:30:00Z,30.2513,-88.0778,1.877,10.29,1111122 
DISL,ioos:station:DISL:DISL:1,2017-02-01T15:00:00Z,30.2513,-88.0778,1.878,10.59,1111122 
DISL,ioos:station:DISL:DISL:1,2017-02-01T15:30:00Z,30.2513,-88.0778,1.873,10.47,1111122 
DISL,ioos:station:DISL:DISL:1,2017-02-01T16:00:00Z,30.2513,-88.0778,1.89,10.45,1111122 
DISL,ioos:station:DISL:DISL:1,2017-02-01T16:30:00Z,30.2513,-88.0778,1.696,10.72,1111122 
DISL,ioos:station:DISL:DISL:1,2017-02-01T17:00:00Z,30.2513,-88.0778,1.879,11.13,1111122 
DISL,ioos:station:DISL:DISL:1,2017-02-01T17:30:00Z,30.2513,-88.0778,1.895,10.84,1111122 
DISL,ioos:station:DISL:DISL:1,2017-02-01T18:00:00Z,30.2513,-88.0778,1.895,10.3,1111122 
DISL,ioos:station:DISL:DISL:1,2017-02-01T18:30:00Z,30.2513,-88.0778,1.912,9.94,1111122 
DISL,ioos:station:DISL:DISL:1,2017-02-01T19:00:00Z,30.2513,-88.0778,1.926,9.99,1111122 
DISL,ioos:station:DISL:DISL:1,2017-02-01T19:30:00Z,30.2513,-88.0778,1.931,9.67,1111122 
DISL,ioos:station:DISL:DISL:1,2017-02-01T20:00:00Z,30.2513,-88.0778,1.945,9.72,1111122 
DISL,ioos:station:DISL:DISL:1,2017-02-01T20:30:00Z,30.2513,-88.0778,1.951,9.65,1111122 
DISL,ioos:station:DISL:DISL:1,2017-02-01T21:00:00Z,30.2513,-88.0778,1.964,9.7,1111122 
DISL,ioos:station:DISL:DISL:1,2017-02-01T21:30:00Z,30.2513,-88.0778,1.975,9.52,1111122 
DISL,ioos:station:DISL:DISL:1,2017-02-01T22:00:00Z,30.2513,-88.0778,1.997,9.19,1111122 
DISL,ioos:station:DISL:DISL:1,2017-02-01T22:30:00Z,30.2513,-88.0778,1.979,8.95,1111122 
DISL,ioos:station:DISL:DISL:1,2017-02-01T23:00:00Z,30.2513,-88.0778,1.982,10.1,1111122 
DISL,ioos:station:DISL:DISL:1,2017-02-01T23:30:00Z,30.2513,-88.0778,1.996,9.77,1111122 
DISL,ioos:station:DISL:DISL:1,2017-02-02T00:00:00Z,30.2513,-88.0778,1.986,9.58,1111122 
DISL,ioos:station:DISL:DISL:1,2017-02-02T00:30:00Z,30.2513,-88.0778,1.988,9.52,1111122 
DISL,ioos:station:DISL:DISL:1,2017-02-02T01:00:00Z,30.2513,-88.0778,1.98,9.64,1111122 
DISL,ioos:station:DISL:DISL:1,2017-02-02T01:30:00Z,30.2513,-88.0778,1.987,9.49,1111122 
DISL,ioos:station:DISL:DISL:1,2017-02-02T02:00:00Z,30.2513,-88.0778,1.968,9.54,1111122 
DISL,ioos:station:DISL:DISL:1,2017-02-02T02:30:00Z,30.2513,-88.0778,1.999,9.59,1111122 
DISL,ioos:station:DISL:DISL:1,2017-02-02T03:00:00Z,30.2513,-88.0778,1.991,9.73,1111122 
DISL,ioos:station:DISL:DISL:1,2017-02-02T03:30:00Z,30.2513,-88.0778,1.997,10.34,1111122 
DISL,ioos:station:DISL:DISL:1,2017-02-02T04:00:00Z,30.2513,-88.0778,1.993,10.17,1111122 
DISL,ioos:station:DISL:DISL:1,2017-02-02T04:30:00Z,30.2513,-88.0778,1.987,10.79,1111122 
DISL,ioos:station:DISL:DISL:1,2017-02-02T05:00:00Z,30.2513,-88.0778,1.986,10.83,1111122 
DISL,ioos:station:DISL:DISL:1,2017-02-02T05:30:00Z,30.2513,-88.0778,1.96,10.98,1111122 
DISL,ioos:station:DISL:DISL:1,2017-02-02T06:30:00Z,30.2513,-88.0778,1.972,10.39,1111122 
DISL,ioos:station:DISL:DISL:1,2017-02-02T07:00:00Z,30.2513,-88.0778,1.993,10.15,1111122 
DISL,ioos:station:DISL:DISL:1,2017-02-02T07:30:00Z,30.2513,-88.0778,1.959,10.01,1111122 
DISL,ioos:station:DISL:DISL:1,2017-02-02T08:00:00Z,30.2513,-88.0778,1.989,10.31,1111122 
DISL,ioos:station:DISL:DISL:1,2017-02-02T08:30:00Z,30.2513,-88.0778,1.988,9.65,1111122 
DISL,ioos:station:DISL:DISL:1,2017-02-02T09:00:00Z,30.2513,-88.0778,1.978,9.48,1111122 
DISL,ioos:station:DISL:DISL:1,2017-02-02T09:30:00Z,30.2513,-88.0778,1.982,9.56,1111122 
DISL,ioos:station:DISL:DISL:1,2017-02-02T10:00:00Z,30.2513,-88.0778,1.98,9.72,1111122 
DISL,ioos:station:DISL:DISL:1,2017-02-02T10:30:00Z,30.2513,-88.0778,1.988,10.26,1111122 
DISL,ioos:station:DISL:DISL:1,2017-02-02T11:00:00Z,30.2513,-88.0778,2.016,10.19,1111122 
DISL,ioos:station:DISL:DISL:1,2017-02-02T11:30:00Z,30.2513,-88.0778,2.0,10.21,1111122 
DISL,ioos:station:DISL:DISL:1,2017-02-02T12:00:00Z,30.2513,-88.0778,1.994,10.11,1111122 
DISL,ioos:station:DISL:DISL:1,2017-02-02T12:30:00Z,30.2513,-88.0778,1.981,9.94,1111122 
DISL,ioos:station:DISL:DISL:1,2017-02-02T13:00:00Z,30.2513,-88.0778,1.963,10.05,1111122 
DISL,ioos:station:DISL:DISL:1,2017-02-02T13:30:00Z,30.2513,-88.0778,1.919,10.12,1111122 
DISL,ioos:station:DISL:DISL:1,2017-02-02T14:00:00Z,30.2513,-88.0778,1.914,10.33,1111122 
DISL,ioos:station:DISL:DISL:1,2017-02-02T14:30:00Z,30.2513,-88.0778,1.897,10.59,1111122 
DISL,ioos:station:DISL:DISL:1,2017-02-02T15:00:00Z,30.2513,-88.0778,1.821,10.95,1111122 
DISL,ioos:station:DISL:DISL:1,2017-02-02T15:30:00Z,30.2513,-88.0778,1.871,10.93,1111122 
DISL,ioos:station:DISL:DISL:1,2017-02-02T16:00:00Z,30.2513,-88.0778,1.934,10.79,1111122 
DISL,ioos:station:DISL:DISL:1,2017-02-02T16:30:00Z,30.2513,-88.0778,1.932,9.79,1111122 
DISL,ioos:station:DISL:DISL:1,2017-02-02T17:00:00Z,30.2513,-88.0778,1.941,9.82,1111122 
DISL,ioos:station:DISL:DISL:1,2017-02-02T17:30:00Z,30.2513,-88.0778,1.941,9.18,1111122 
DISL,ioos:station:DISL:DISL:1,2017-02-02T18:00:00Z,30.2513,-88.0778,1.956,8.39,1111122 
DISL,ioos:station:DISL:DISL:1,2017-02-02T18:30:00Z,30.2513,-88.0778,1.96,7.83,1111122 
DISL,ioos:station:DISL:DISL:1,2017-02-02T19:00:00Z,30.2513,-88.0778,1.963,7.18,1111122 
DISL,ioos:station:DISL:DISL:1,2017-02-02T19:30:00Z,30.2513,-88.0778,1.973,6.61,1111122 
DISL,ioos:station:DISL:DISL:1,2017-02-02T20:00:00Z,30.2513,-88.0778,1.975,5.83,1111122 
DISL,ioos:station:DISL:DISL:1,2017-02-02T20:30:00Z,30.2513,-88.0778,1.964,5.95,1111122 
DISL,ioos:station:DISL:DISL:1,2017-02-02T21:00:00Z,30.2513,-88.0778,1.982,5.99,1111122 
DISL,ioos:station:DISL:DISL:1,2017-02-02T21:30:00Z,30.2513,-88.0778,2.003,6.73,1111122 
DISL,ioos:station:DISL:DISL:1,2017-02-02T22:00:00Z,30.2513,-88.0778,2.041,9.21,1111122 
DISL,ioos:station:DISL:DISL:1,2017-02-02T22:30:00Z,30.2513,-88.0778,2.017,8.7,1111122 
DISL,ioos:station:DISL:DISL:1,2017-02-02T23:00:00Z,30.2513,-88.0778,2.034,10.28,1111122 
DISL,ioos:station:DISL:DISL:1,2017-02-02T23:30:00Z,30.2513,-88.0778,2.017,10.36,1111122 
DISL,ioos:station:DISL:DISL:1,2017-02-03T00:00:00Z,30.2513,-88.0778,1.998,9.95,1111122 
DISL,ioos:station:DISL:DISL:1,2017-02-03T00:30:00Z,30.2513,-88.0778,1.992,10.26,1111122 
DISL,ioos:station:DISL:DISL:1,2017-02-03T01:00:00Z,30.2513,-88.0778,1.994,10.31,1111122 
DISL,ioos:station:DISL:DISL:1,2017-02-03T01:30:00Z,30.2513,-88.0778,2.002,10.29,1111122 
DISL,ioos:station:DISL:DISL:1,2017-02-03T02:00:00Z,30.2513,-88.0778,1.977,8.75,1111122 
DISL,ioos:station:DISL:DISL:1,2017-02-03T02:30:00Z,30.2513,-88.0778,1.971,8.45,1111122 
DISL,ioos:station:DISL:DISL:1,2017-02-03T03:00:00Z,30.2513,-88.0778,1.971,8.28,1111122 
DISL,ioos:station:DISL:DISL:1,2017-02-03T03:30:00Z,30.2513,-88.0778,1.967,8.43,1111122 
DISL,ioos:station:DISL:DISL:1,2017-02-03T04:00:00Z,30.2513,-88.0778,1.962,8.42,1111122 
DISL,ioos:station:DISL:DISL:1,2017-02-03T04:30:00Z,30.2513,-88.0778,1.948,8.29,1111122 
DISL,ioos:station:DISL:DISL:1,2017-02-03T05:00:00Z,30.2513,-88.0778,1.942,8.35,1111122 
DISL,ioos:station:DISL:DISL:1,2017-02-03T05:30:00Z,30.2513,-88.0778,1.925,8.11,1111122 
DISL,ioos:station:DISL:DISL:1,2017-02-03T06:30:00Z,30.2513,-88.0778,1.928,7.56,1111122 
DISL,ioos:station:DISL:DISL:1,2017-02-03T07:00:00Z,30.2513,-88.0778,1.922,8.17,1111122 
DISL,ioos:station:DISL:DISL:1,2017-02-03T07:30:00Z,30.2513,-88.0778,1.794,8.84,1111122 
DISL,ioos:station:DISL:DISL:1,2017-02-03T08:00:00Z,30.2513,-88.0778,1.91,8.63,1111122 
DISL,ioos:station:DISL:DISL:1,2017-02-03T08:30:00Z,30.2513,-88.0778,1.944,9.06,1111122 
DISL,ioos:station:DISL:DISL:1,2017-02-03T09:00:00Z,30.2513,-88.0778,1.975,9.38,1111122 
DISL,ioos:station:DISL:DISL:1,2017-02-03T09:30:00Z,30.2513,-88.0778,1.929,9.24,1111122 
DISL,ioos:station:DISL:DISL:1,2017-02-03T10:00:00Z,30.2513,-88.0778,1.929,9.31,1111122 
DISL,ioos:station:DISL:DISL:1,2017-02-03T10:30:00Z,30.2513,-88.0778,1.926,8.42,1111122 
DISL,ioos:station:DISL:DISL:1,2017-02-03T11:00:00Z,30.2513,-88.0778,1.914,7.4,1111122 
DISL,ioos:station:DISL:DISL:1,2017-02-03T11:30:00Z,30.2513,-88.0778,1.899,8.21,1111122 
DISL,ioos:station:DISL:DISL:1,2017-02-03T12:00:00Z,30.2513,-88.0778,1.919,8.94,1111122 
DISL,ioos:station:DISL:DISL:1,2017-02-03T12:30:00Z,30.2513,-88.0778,1.911,9.2,1111122 
DISL,ioos:station:DISL:DISL:1,2017-02-03T13:00:00Z,30.2513,-88.0778,1.928,10.6,1111122 
DISL,ioos:station:DISL:DISL:1,2017-02-03T13:30:00Z,30.2513,-88.0778,1.931,10.62,1111122 
DISL,ioos:station:DISL:DISL:1,2017-02-03T14:00:00Z,30.2513,-88.0778,1.974,10.87,1111122 
DISL,ioos:station:DISL:DISL:1,2017-02-03T14:30:00Z,30.2513,-88.0778,1.909,10.84,1111122 
DISL,ioos:station:DISL:DISL:1,2017-02-03T15:00:00Z,30.2513,-88.0778,1.941,10.88,1111122 
DISL,ioos:station:DISL:DISL:1,2017-02-03T15:30:00Z,30.2513,-88.0778,1.966,10.78,1111122 
DISL,ioos:station:DISL:DISL:1,2017-02-03T16:00:00Z,30.2513,-88.0778,2.015,10.79,1111122 
DISL,ioos:station:DISL:DISL:1,2017-02-03T16:30:00Z,30.2513,-88.0778,2.009,10.43,1111122 
DISL,ioos:station:DISL:DISL:1,2017-02-03T17:00:00Z,30.2513,-88.0778,2.026,10.5,1111122 
DISL,ioos:station:DISL:DISL:1,2017-02-03T17:30:00Z,30.2513,-88.0778,2.021,10.03,1111122 
DISL,ioos:station:DISL:DISL:1,2017-02-03T18:00:00Z,30.2513,-88.0778,2.036,10.82,1111122 
DISL,ioos:station:DISL:DISL:1,2017-02-03T18:30:00Z,30.2513,-88.0778,2.037,10.65,1111122 
DISL,ioos:station:DISL:DISL:1,2017-02-03T19:00:00Z,30.2513,-88.0778,2.041,10.79,1111122 
DISL,ioos:station:DISL:DISL:1,2017-02-03T19:30:00Z,30.2513,-88.0778,2.027,10.72,1111122 
DISL,ioos:station:DISL:DISL:1,2017-02-03T20:00:00Z,30.2513,-88.0778,2.11,10.65,1111122 
DISL,ioos:station:DISL:DISL:1,2017-02-03T20:30:00Z,30.2513,-88.0778,2.05,10.49,1111122 
DISL,ioos:station:DISL:DISL:1,2017-02-03T21:00:00Z,30.2513,-88.0778,2.09,10.58,1111122 
DISL,ioos:station:DISL:DISL:1,2017-02-03T21:30:00Z,30.2513,-88.0778,2.048,10.07,1111122 
DISL,ioos:station:DISL:DISL:1,2017-02-03T22:00:00Z,30.2513,-88.0778,2.048,10.13,1111122 
DISL,ioos:station:DISL:DISL:1,2017-02-03T22:30:00Z,30.2513,-88.0778,1.987,10.47,1111122 
DISL,ioos:station:DISL:DISL:1,2017-02-03T23:00:00Z,30.2513,-88.0778,1.976,10.22,1111122 
DISL,ioos:station:DISL:DISL:1,2017-02-03T23:30:00Z,30.2513,-88.0778,2.001,10.36,1111122 
DISL,ioos:station:DISL:DISL:1,2017-02-04T00:00:00Z,30.2513,-88.0778,1.957,10.22,1111122 
DISL,ioos:station:DISL:DISL:1,2017-02-04T00:30:00Z,30.2513,-88.0778,1.95,10.0,1111122 
DISL,ioos:station:DISL:DISL:1,2017-02-04T01:00:00Z,30.2513,-88.0778,1.949,9.72,1111122 
DISL,ioos:station:DISL:DISL:1,2017-02-04T01:30:00Z,30.2513,-88.0778,1.905,10.01,1111122 
DISL,ioos:station:DISL:DISL:1,2017-02-04T02:00:00Z,30.2513,-88.0778,1.894,9.86,1111122 
DISL,ioos:station:DISL:DISL:1,2017-02-04T02:30:00Z,30.2513,-88.0778,1.867,9.83,1111122 
DISL,ioos:station:DISL:DISL:1,2017-02-04T03:00:00Z,30.2513,-88.0778,1.831,10.01,1111122 
DISL,ioos:station:DISL:DISL:1,2017-02-04T03:30:00Z,30.2513,-88.0778,1.882,9.95,1111122 
DISL,ioos:station:DISL:DISL:1,2017-02-04T04:00:00Z,30.2513,-88.0778,1.783,9.76,1111122 
DISL,ioos:station:DISL:DISL:1,2017-02-04T04:30:00Z,30.2513,-88.0778,1.904,9.73,1111122 
DISL,ioos:station:DISL:DISL:1,2017-02-04T05:00:00Z,30.2513,-88.0778,1.847,9.7,1111122 
DISL,ioos:station:DISL:DISL:1,2017-02-04T05:30:00Z,30.2513,-88.0778,1.812,9.64,1111122 
DISL,ioos:station:DISL:DISL:1,2017-02-04T06:30:00Z,30.2513,-88.0778,1.746,9.55,1111122 
DISL,ioos:station:DISL:DISL:1,2017-02-04T07:00:00Z,30.2513,-88.0778,1.782,9.55,1111122 
DISL,ioos:station:DISL:DISL:1,2017-02-04T07:30:00Z,30.2513,-88.0778,1.673,9.54,1111122 
DISL,ioos:station:DISL:DISL:1,2017-02-04T08:00:00Z,30.2513,-88.0778,1.77,9.65,1111122 
DISL,ioos:station:DISL:DISL:1,2017-02-04T08:30:00Z,30.2513,-88.0778,1.778,9.47,1111122 
DISL,ioos:station:DISL:DISL:1,2017-02-04T09:00:00Z,30.2513,-88.0778,1.618,9.32,1111122 
DISL,ioos:station:DISL:DISL:1,2017-02-04T09:30:00Z,30.2513,-88.0778,1.808,9.35,1111122 
DISL,ioos:station:DISL:DISL:1,2017-02-04T10:00:00Z,30.2513,-88.0778,1.784,9.26,1111122 
DISL,ioos:station:DISL:DISL:1,2017-02-04T10:30:00Z,30.2513,-88.0778,1.74,9.25,1111122 
DISL,ioos:station:DISL:DISL:1,2017-02-04T11:00:00Z,30.2513,-88.0778,1.702,9.3,1111122 
DISL,ioos:station:DISL:DISL:1,2017-02-04T11:30:00Z,30.2513,-88.0778,1.712,9.19,1111122 
DISL,ioos:station:DISL:DISL:1,2017-02-04T12:00:00Z,30.2513,-88.0778,1.73,9.21,1111122 
DISL,ioos:station:DISL:DISL:1,2017-02-04T12:30:00Z,30.2513,-88.0778,1.739,9.46,1111122 
DISL,ioos:station:DISL:DISL:1,2017-02-04T13:00:00Z,30.2513,-88.0778,1.815,9.35,1111122 
DISL,ioos:station:DISL:DISL:1,2017-02-04T13:30:00Z,30.2513,-88.0778,1.762,9.38,1111122 
DISL,ioos:station:DISL:DISL:1,2017-02-04T14:00:00Z,30.2513,-88.0778,1.713,9.29,1111122 
DISL,ioos:station:DISL:DISL:1,2017-02-04T14:30:00Z,30.2513,-88.0778,1.776,9.03,1111122 
DISL,ioos:station:DISL:DISL:1,2017-02-04T15:00:00Z,30.2513,-88.0778,1.788,8.82,1111122 
DISL,ioos:station:DISL:DISL:1,2017-02-04T15:30:00Z,30.2513,-88.0778,1.816,8.5,1111122 
DISL,ioos:station:DISL:DISL:1,2017-02-04T16:00:00Z,30.2513,-88.0778,1.801,6.96,1111122 
DISL,ioos:station:DISL:DISL:1,2017-02-04T16:30:00Z,30.2513,-88.0778,1.814,5.78,1111122 
DISL,ioos:station:DISL:DISL:1,2017-02-04T17:00:00Z,30.2513,-88.0778,1.826,5.88,1111122 
DISL,ioos:station:DISL:DISL:1,2017-02-04T17:30:00Z,30.2513,-88.0778,1.855,5.27,1111122 
DISL,ioos:station:DISL:DISL:1,2017-02-04T18:00:00Z,30.2513,-88.0778,1.887,5.19,1111122 
DISL,ioos:station:DISL:DISL:1,2017-02-04T18:30:00Z,30.2513,-88.0778,1.91,6.28,1111122 
DISL,ioos:station:DISL:DISL:1,2017-02-04T19:00:00Z,30.2513,-88.0778,1.931,5.56,1111122 
DISL,ioos:station:DISL:DISL:1,2017-02-04T19:30:00Z,30.2513,-88.0778,1.959,5.15,1111122 
DISL,ioos:station:DISL:DISL:1,2017-02-04T20:00:00Z,30.2513,-88.0778,1.987,5.74,1111122 
DISL,ioos:station:DISL:DISL:1,2017-02-04T20:30:00Z,30.2513,-88.0778,2.006,5.24,1111122 
DISL,ioos:station:DISL:DISL:1,2017-02-04T21:00:00Z,30.2513,-88.0778,2.021,5.13,1111122 
DISL,ioos:station:DISL:DISL:1,2017-02-04T21:30:00Z,30.2513,-88.0778,2.036,5.27,1111122 
DISL,ioos:station:DISL:DISL:1,2017-02-04T22:00:00Z,30.2513,-88.0778,2.043,5.09,1111122 
DISL,ioos:station:DISL:DISL:1,2017-02-04T22:30:00Z,30.2513,-88.0778,2.044,4.9,1111122 
DISL,ioos:station:DISL:DISL:1,2017-02-04T23:00:00Z,30.2513,-88.0778,2.049,6.04,1111122 
DISL,ioos:station:DISL:DISL:1,2017-02-04T23:30:00Z,30.2513,-88.0778,2.079,8.94,1111122 
DISL,ioos:station:DISL:DISL:1,2017-02-05T00:00:00Z,30.2513,-88.0778,2.07,9.88,1111122 
DISL,ioos:station:DISL:DISL:1,2017-02-05T00:30:00Z,30.2513,-88.0778,2.049,10.03,1111122 
DISL,ioos:station:DISL:DISL:1,2017-02-05T01:00:00Z,30.2513,-88.0778,2.025,10.78,1111122 
DISL,ioos:station:DISL:DISL:1,2017-02-05T01:30:00Z,30.2513,-88.0778,2.004,10.66,1111122 
DISL,ioos:station:DISL:DISL:1,2017-02-05T02:00:00Z,30.2513,-88.0778,1.981,10.08,1111122 
DISL,ioos:station:DISL:DISL:1,2017-02-05T02:30:00Z,30.2513,-88.0778,1.966,9.89,1111122 
DISL,ioos:station:DISL:DISL:1,2017-02-05T03:00:00Z,30.2513,-88.0778,1.948,10.78,1111122 
DISL,ioos:station:DISL:DISL:1,2017-02-05T03:30:00Z,30.2513,-88.0778,1.92,10.86,1111122 
DISL,ioos:station:DISL:DISL:1,2017-02-05T04:00:00Z,30.2513,-88.0778,1.903,10.02,1111122 
DISL,ioos:station:DISL:DISL:1,2017-02-05T04:30:00Z,30.2513,-88.0778,1.881,9.47,1111122 
DISL,ioos:station:DISL:DISL:1,2017-02-05T05:00:00Z,30.2513,-88.0778,1.863,9.17,1111122 
DISL,ioos:station:DISL:DISL:1,2017-02-05T05:30:00Z,30.2513,-88.0778,1.844,9.03,1111122 
DISL,ioos:station:DISL:DISL:1,2017-02-05T06:30:00Z,30.2513,-88.0778,1.806,9.67,1111122 
DISL,ioos:station:DISL:DISL:1,2017-02-05T07:00:00Z,30.2513,-88.0778,1.793,9.72,1111122 
DISL,ioos:station:DISL:DISL:1,2017-02-05T07:30:00Z,30.2513,-88.0778,1.772,9.75,1111122 
DISL,ioos:station:DISL:DISL:1,2017-02-05T08:00:00Z,30.2513,-88.0778,1.754,9.74,1111122 
DISL,ioos:station:DISL:DISL:1,2017-02-05T08:30:00Z,30.2513,-88.0778,1.749,9.72,1111122 
DISL,ioos:station:DISL:DISL:1,2017-02-05T09:00:00Z,30.2513,-88.0778,1.728,9.75,1111122 
DISL,ioos:station:DISL:DISL:1,2017-02-05T09:30:00Z,30.2513,-88.0778,1.729,9.7,1111122 
DISL,ioos:station:DISL:DISL:1,2017-02-05T10:00:00Z,30.2513,-88.0778,1.727,9.62,1111122 
DISL,ioos:station:DISL:DISL:1,2017-02-05T10:30:00Z,30.2513,-88.0778,1.734,9.72,1111122 
DISL,ioos:station:DISL:DISL:1,2017-02-05T11:00:00Z,30.2513,-88.0778,1.744,9.58,1111122 
DISL,ioos:station:DISL:DISL:1,2017-02-05T11:30:00Z,30.2513,-88.0778,1.738,9.43,1111122 
DISL,ioos:station:DISL:DISL:1,2017-02-05T12:00:00Z,30.2513,-88.0778,1.772,9.49,1111122 
DISL,ioos:station:DISL:DISL:1,2017-02-05T12:30:00Z,30.2513,-88.0778,1.786,9.46,1111122 
DISL,ioos:station:DISL:DISL:1,2017-02-05T13:00:00Z,30.2513,-88.0778,1.786,9.43,1111122 
DISL,ioos:station:DISL:DISL:1,2017-02-05T13:30:00Z,30.2513,-88.0778,1.791,8.85,1111122 
DISL,ioos:station:DISL:DISL:1,2017-02-05T14:00:00Z,30.2513,-88.0778,1.814,8.81,1111122 
DISL,ioos:station:DISL:DISL:1,2017-02-05T14:30:00Z,30.2513,-88.0778,1.833,8.31,1111122 
DISL,ioos:station:DISL:DISL:1,2017-02-05T15:00:00Z,30.2513,-88.0778,1.851,6.52,1111122 
DISL,ioos:station:DISL:DISL:1,2017-02-05T15:30:00Z,30.2513,-88.0778,1.862,6.88,1111122 
DISL,ioos:station:DISL:DISL:1,2017-02-05T16:00:00Z,30.2513,-88.0778,1.876,6.12,1111122 
DISL,ioos:station:DISL:DISL:1,2017-02-05T16:30:00Z,30.2513,-88.0778,1.64,6.73,1111122 
DISL,ioos:station:DISL:DISL:1,2017-02-05T17:00:00Z,30.2513,-88.0778,1.919,6.6,1111122 
DISL,ioos:station:DISL:DISL:1,2017-02-05T17:30:00Z,30.2513,-88.0778,1.932,5.76,1111122 
DISL,ioos:station:DISL:DISL:1,2017-02-05T18:00:00Z,30.2513,-88.0778,1.956,5.61,1111122 
DISL,ioos:station:DISL:DISL:1,2017-02-05T18:30:00Z,30.2513,-88.0778,1.984,6.78,1111122 
DISL,ioos:station:DISL:DISL:1,2017-02-05T19:00:00Z,30.2513,-88.0778,1.991,5.55,1111122 
DISL,ioos:station:DISL:DISL:1,2017-02-05T19:30:00Z,30.2513,-88.0778,2.016,5.64,1111122 
DISL,ioos:station:DISL:DISL:1,2017-02-05T20:00:00Z,30.2513,-88.0778,2.043,6.26,1111122 
DISL,ioos:station:DISL:DISL:1,2017-02-05T20:30:00Z,30.2513,-88.0778,2.054,6.23,1111122 
DISL,ioos:station:DISL:DISL:1,2017-02-05T21:00:00Z,30.2513,-88.0778,2.054,6.23,1111122 
DISL,ioos:station:DISL:DISL:1,2017-02-05T21:30:00Z,30.2513,-88.0778,2.077,7.16,1111122 
DISL,ioos:station:DISL:DISL:1,2017-02-05T22:00:00Z,30.2513,-88.0778,2.073,7.08,1111122 
DISL,ioos:station:DISL:DISL:1,2017-02-05T22:30:00Z,30.2513,-88.0778,2.079,8.66,1111122 
DISL,ioos:station:DISL:DISL:1,2017-02-05T23:00:00Z,30.2513,-88.0778,2.097,11.81,1111122 
DISL,ioos:station:DISL:DISL:1,2017-02-05T23:30:00Z,30.2513,-88.0778,2.091,11.54,1111122 
DISL,ioos:station:DISL:DISL:1,2017-02-06T00:00:00Z,30.2513,-88.0778,2.081,11.98,1111122 
DISL,ioos:station:DISL:DISL:1,2017-02-06T00:30:00Z,30.2513,-88.0778,2.084,12.22,1111122 
DISL,ioos:station:DISL:DISL:1,2017-02-06T01:00:00Z,30.2513,-88.0778,2.071,11.99,1111122 
DISL,ioos:station:DISL:DISL:1,2017-02-06T01:30:00Z,30.2513,-88.0778,2.045,12.07,1111122 
DISL,ioos:station:DISL:DISL:1,2017-02-06T02:00:00Z,30.2513,-88.0778,2.031,12.23,1111122 
DISL,ioos:station:DISL:DISL:1,2017-02-06T02:30:00Z,30.2513,-88.0778,1.937,11.87,1111122 
DISL,ioos:station:DISL:DISL:1,2017-02-06T03:00:00Z,30.2513,-88.0778,1.996,10.65,1111122 
DISL,ioos:station:DISL:DISL:1,2017-02-06T03:30:00Z,30.2513,-88.0778,1.959,11.94,1111122 
DISL,ioos:station:DISL:DISL:1,2017-02-06T04:00:00Z,30.2513,-88.0778,1.934,12.06,1111122 
DISL,ioos:station:DISL:DISL:1,2017-02-06T04:30:00Z,30.2513,-88.0778,1.901,12.0,1111122 
DISL,ioos:station:DISL:DISL:1,2017-02-06T05:00:00Z,30.2513,-88.0778,1.853,10.27,1111122 
DISL,ioos:station:DISL:DISL:1,2017-02-06T05:30:00Z,30.2513,-88.0778,1.848,10.4,1111122 
DISL,ioos:station:DISL:DISL:1,2017-02-06T06:30:00Z,30.2513,-88.0778,1.787,10.69,1111122 
DISL,ioos:station:DISL:DISL:1,2017-02-06T07:00:00Z,30.2513,-88.0778,1.768,10.59,1111122 
DISL,ioos:station:DISL:DISL:1,2017-02-06T07:30:00Z,30.2513,-88.0778,1.747,10.57,1111122 
DISL,ioos:station:DISL:DISL:1,2017-02-06T08:00:00Z,30.2513,-88.0778,1.724,10.44,1111122 
DISL,ioos:station:DISL:DISL:1,2017-02-06T08:30:00Z,30.2513,-88.0778,1.709,10.32,1111122 
DISL,ioos:station:DISL:DISL:1,2017-02-06T09:00:00Z,30.2513,-88.0778,1.696,10.3,1111122 
DISL,ioos:station:DISL:DISL:1,2017-02-06T09:30:00Z,30.2513,-88.0778,1.684,10.32,1111122 
DISL,ioos:station:DISL:DISL:1,2017-02-06T10:00:00Z,30.2513,-88.0778,1.67,10.43,1111122 
DISL,ioos:station:DISL:DISL:1,2017-02-06T10:30:00Z,30.2513,-88.0778,1.683,10.53,1111122 
DISL,ioos:station:DISL:DISL:1,2017-02-06T11:00:00Z,30.2513,-88.0778,1.644,10.51,1111122 
DISL,ioos:station:DISL:DISL:1,2017-02-06T11:30:00Z,30.2513,-88.0778,1.668,10.58,1111122 
DISL,ioos:station:DISL:DISL:1,2017-02-06T12:00:00Z,30.2513,-88.0778,1.68,10.31,1111122 
DISL,ioos:station:DISL:DISL:1,2017-02-06T12:30:00Z,30.2513,-88.0778,1.66,9.99,1111122 
DISL,ioos:station:DISL:DISL:1,2017-02-06T13:00:00Z,30.2513,-88.0778,1.715,9.39,1111122 
DISL,ioos:station:DISL:DISL:1,2017-02-06T13:30:00Z,30.2513,-88.0778,1.684,9.85,1111122 
DISL,ioos:station:DISL:DISL:1,2017-02-06T14:00:00Z,30.2513,-88.0778,1.693,9.48,1111122 
DISL,ioos:station:DISL:DISL:1,2017-02-06T14:30:00Z,30.2513,-88.0778,1.681,9.58,1111122 
DISL,ioos:station:DISL:DISL:1,2017-02-06T15:00:00Z,30.2513,-88.0778,1.663,9.57,1111122 
DISL,ioos:station:DISL:DISL:1,2017-02-06T15:30:00Z,30.2513,-88.0778,1.789,9.98,1111122 
DISL,ioos:station:DISL:DISL:1,2017-02-06T16:00:00Z,30.2513,-88.0778,1.806,8.68,1111122 
DISL,ioos:station:DISL:DISL:1,2017-02-06T16:30:00Z,30.2513,-88.0778,1.836,8.14,1111122 
DISL,ioos:station:DISL:DISL:1,2017-02-06T17:00:00Z,30.2513,-88.0778,1.861,7.62,1111122 
DISL,ioos:station:DISL:DISL:1,2017-02-06T17:30:00Z,30.2513,-88.0778,1.902,7.18,1111122 
DISL,ioos:station:DISL:DISL:1,2017-02-06T18:00:00Z,30.2513,-88.0778,1.922,7.02,1111122 